Weather History for Trinidad, CO

Change the Weather History Date:

Wednesday, April 2, 2014

  Actual Average Record
Temperature  
Mean Temperature 56 °F 46 °F  
Max Temperature 72 °F 62 °F 85 °F (2011)
Min Temperature 39 °F 30 °F 9 °F (1975)
Degree Days  
Heating Degree Days 9 19  
Month to date heating degree days 25 38  
Since 1 July heating degree days 4702 4867  
Cooling Degree Days 0 0  
Month to date cooling degree days 0 0  
Year to date cooling degree days 0 0  
Growing Degree Days 7 (Base 50)    
Moisture  
Dew Point 9 °F    
Average Humidity 24    
Maximum Humidity 41    
Minimum Humidity 7    
Precipitation  
Precipitation 0.00 in 0.03 in 0.48 in (2004)
Month to date precipitation 0.00 0.06  
Year to date precipitation 0.55 1.84  
Sea Level Pressure  
Sea Level Pressure 29.47 in    
Wind  
Wind Speed 14 mph (SW)    
Max Wind Speed 30 mph    
Max Gust Speed 46 mph    
Visibility 10 miles    
Events      
T = Trace of Precipitation, MM = Missing Value Source: NWS Daily Summary

Daily Weather History Graph

Daily Weather History Graph

Search for Another Location

Airport:

Trip Planner

Search our weather history database for the weather conditions in past years. The results will help you decide how hot, cold, wet, or windy it might be!

Date:

Astronomy

Apr. 02, 2014 Rise Set
Actual Time 6:41 AM MDT 7:20 PM MDT
Civil Twilight 6:15 AM MDT 7:47 PM MDT
Nautical Twilight 5:44 AM MDT 8:18 PM MDT
Astronomical Twilight 5:12 AM MDT 8:50 PM MDT
Moon 8:31 AM MDT (4/2) 10:42 PM MDT (4/2)
Length of Visible Light 13h 32m
Length of Day
12h 39m
Waxing Crescent, 10% of the Moon is Illuminated
Apr 2
Waxing Crescent
Apr 7
First Quarter
Apr 15
Full
Apr 22
Last Quarter
Apr 29
New

Hourly Weather History & Observations

Time (MDT) Temp. Windchill Dew Point Humidity Pressure Visibility Wind Dir Wind Speed Gust Speed Precip Events Conditions
12:54 AM 52.0 °F - 7.0 °F 16% 29.54 in 10.0 mi SW 12.7 mph - N/A   Clear
1:54 AM 52.0 °F - 7.0 °F 16% 29.53 in 10.0 mi SSW 6.9 mph - N/A   Clear
2:54 AM 50.0 °F - 8.1 °F 18% 29.52 in 10.0 mi South 6.9 mph - N/A   Clear
3:54 AM 50.0 °F - 8.1 °F 18% 29.51 in 10.0 mi SSW 5.8 mph - N/A   Clear
4:54 AM 48.9 °F - 9.0 °F 20% 29.51 in 10.0 mi SSE 4.6 mph - N/A   Clear
6:54 AM 43.0 °F 38.2 °F 9.0 °F 25% 29.54 in 10.0 mi SSW 8.1 mph - N/A   Clear
7:54 AM 54.0 °F - 10.0 °F 17% 29.53 in 10.0 mi SW 11.5 mph - N/A   Clear
8:54 AM 59.0 °F - 10.0 °F 14% 29.52 in 10.0 mi SW 15.0 mph 24.2 mph N/A   Clear
9:54 AM 63.0 °F - 10.0 °F 13% 29.52 in 10.0 mi SW 19.6 mph 26.5 mph N/A   Clear
10:54 AM 64.9 °F - 9.0 °F 11% 29.50 in 10.0 mi WSW 21.9 mph 31.1 mph N/A   Clear
11:54 AM 66.0 °F - 9.0 °F 11% 29.48 in 10.0 mi WSW 17.3 mph 34.5 mph N/A   Clear
12:54 PM 69.1 °F - 7.0 °F 9% 29.43 in 10.0 mi WSW 26.5 mph 34.5 mph N/A   Clear
1:54 PM 70.0 °F - 7.0 °F 9% 29.40 in 10.0 mi SW 21.9 mph 29.9 mph N/A   Clear
2:54 PM 70.0 °F - 5.0 °F 8% 29.38 in 10.0 mi South 12.7 mph 26.5 mph N/A   Clear
3:54 PM 71.1 °F - 3.0 °F 7% 29.36 in 10.0 mi SW 20.7 mph 28.8 mph N/A   Clear
4:54 PM 68.0 °F - 6.1 °F 9% 29.37 in 10.0 mi WSW 13.8 mph - N/A   Clear
5:54 PM 66.9 °F - 7.0 °F 10% 29.40 in 10.0 mi SW 21.9 mph - N/A   Clear
6:54 PM 63.0 °F - 6.1 °F 11% 29.44 in 10.0 mi SW 20.7 mph - N/A   Clear
7:54 PM 55.9 °F - 7.0 °F 14% 29.43 in 10.0 mi WSW 10.4 mph - N/A   Clear
8:54 PM 53.1 °F - 15.1 °F 22% 29.44 in 10.0 mi NW 12.7 mph - N/A   Clear
10:54 PM 46.9 °F - 21.0 °F 36% 29.49 in 10.0 mi NNW 8.1 mph - N/A   Clear
11:54 PM 45.0 °F 38.5 °F 23.0 °F 42% 29.51 in 10.0 mi NNW 13.8 mph - N/A   Clear